Location: Newark
(39.9333°N, 8.7667°E)
Time: 09:00:33
(UTC+00:00)

ISS - Visible Passes

Search period start: 13 December 2019 00:00
Search period end: 23 December 2019 00:00
Orbit: 411 x 421 km, 51.6° (Epoch: 14 December)

Date Brightness Start Highest point End Pass type
(mag) Time Alt. Az. Time Alt. Az. Time Alt. Az.
13 Dec -1.7 16:38:30 10° WNW 16:41:32 31° SW 16:44:32 10° SSE visible
15 Dec 0.1 16:39:57 10° WSW 16:40:56 11° SW 16:41:55 10° SW visible
18 Dec 0.0 06:08:37 10° SSE 06:09:46 11° SE 06:10:55 10° ESE visible
20 Dec -1.7 06:06:04 10° SSW 06:09:05 33° SE 06:12:06 10° ENE visible
21 Dec -0.8 05:18:17 10° S 05:20:40 19° SE 05:23:04 10° E visible
22 Dec -0.3 04:31:43 10° SE 04:32:18 10° SE 04:32:53 10° ESE visible
22 Dec -3.9 06:05:15 10° SW 06:08:33 81° NW 06:11:53 10° NE visible
